Location: Holten
(52.5716°N, 6.1150°E)
Time: 20:28:15
(UTC+00:00)

Daily predictions for brighter satellites

Satellite Brightness Start Highest point End
(mag) Time Altitude Azimuth Time Altitude Azimuth Time Altitude Azimuth
Cosmos 2360 Rocket 2.7 16:21:21 10° SW 16:26:57 61° NW 16:32:36 10° NNE
BREEZE-M TANK 4.2 16:26:03 10° WSW 16:29:32 32° S 16:33:25 10° ESE
Cosmos 2344 4.0 16:24:02 10° S 16:31:04 42° ESE 16:37:49 10° NE
SJ-12 4.0 16:29:21 10° S 16:33:12 78° WSW 16:37:05 10° NNW
SL-16 R/B 3.5 16:28:52 10° WSW 16:34:03 35° NW 16:39:16 10° NNE
Cosmos 1937 Rocket 4.3 16:31:46 10° N 16:36:15 29° NE 16:40:44 10° ESE
ASTEX 1 3.4 16:34:14 10° S 16:39:05 88° E 16:43:59 10° N
Cosmos 1354 Rocket 4.4 16:34:34 10° NNW 16:39:47 71° WSW 16:44:59 10° SSE
Meteor 1-31 Rocket 4.1 16:38:01 10° E 16:40:16 16° ENE 16:42:32 10° NNE
Cosmos 1943 Rocket 2.2 16:38:05 10° NNW 16:43:45 62° NE 16:49:19 10° SE
CZ-2D R/B 3.6 16:40:38 10° S 16:44:02 61° WSW 16:47:26 10° NNW
ARIANE 5 R/B 3.6 16:41:51 10° S 16:46:56 51° W 16:52:02 10° NNW
CZ-2C R/B 4.3 16:48:35 10° E 16:49:54 12° ENE 16:51:14 10° NE
RESURS DK-1 2.3 16:46:47 10° NNW 16:50:47 56° NE 16:54:44 10° SE
Cosmos 2237 Rocket 3.1 16:46:14 10° SSE 16:51:02 29° ESE 16:55:53 10° NE
Cosmos 1515 Rocket 4.4 16:50:24 10° SSW 16:54:36 50° WNW 16:58:51 10° N
Tsikada Rocket 4.0 16:49:09 10° S 16:55:17 84° E 17:01:31 10° NNE
Cosmos 1862 Rocket 4.4 16:51:43 10° SSE 16:55:29 29° E 16:59:19 10° NNE
BlueWalker 3 1.8 16:52:41 10° W 16:56:21 81° N 16:59:51 11° E
Cosmos 1455 2.0 16:54:07 10° NNW 16:57:21 73° W 17:00:32 10° S
USA 81 4.1 16:52:06 10° S 16:57:22 90° ESE 17:02:42 10° N
Cosmos 2278 Rocket 2.2 16:52:10 10° NNW 16:57:53 90° WSW 17:03:34 10° SSE
BREEZE-M DEB (TANK) 3.0 16:56:04 10° SSW 16:57:57 22° SSE 17:00:09 11° E
COSMO-SKYMED 1 3.6 16:56:32 10° NE 17:00:09 25° E 17:03:45 10° SSE
Cosmos 2219 Rocket 2.7 16:56:29 10° SW 17:02:00 59° NW 17:07:35 10° NNE
SJ-7 4.1 16:58:40 10° SSE 17:02:28 74° ENE 17:06:17 10° N
ARGOS Delta rocket 3.7 16:58:26 10° SSE 17:03:05 84° ENE 17:07:33 10° N
ISS -1.9 17:01:27 10° SSW 17:03:59 20° SE 17:06:06 12° ESE
CZ-4C R/B 3.2 17:01:58 10° SSE 17:05:18 21° ESE 17:08:01 14° ENE
CSL-04 DEB 4.3 17:03:04 10° SSE 17:06:56 82° WSW 17:10:45 10° NNW
Meteor 1-21 4.2 17:04:12 10° S 17:09:47 74° E 17:15:27 10° NNE
USA 306 1.5 17:09:22 10° WNW 17:11:26 59° N 17:12:55 22° E
SL-14 R/B 4.4 17:08:25 10° SW 17:12:00 42° WNW 17:15:39 10° N
Cosmos 1763 Rocket 3.5 17:07:43 10° SSW 17:12:53 69° ESE 17:18:00 10° NNE
Spot 4 Rocket 4.3 17:08:17 10° S 17:13:25 75° WSW 17:18:35 10° NNW
Cosmos 1733 Rocket 3.0 17:09:05 10° N 17:13:29 71° ENE 17:17:53 10° SSE
YAOGAN 1 3.2 17:10:20 10° SE 17:14:08 32° ENE 17:17:58 10° N
Cosmos 540 Rocket 3.5 17:13:34 10° S 17:18:36 61° ESE 17:23:40 10° NNE
Landsat 7 3.8 17:15:38 10° SSE 17:20:13 56° ENE 17:24:50 10° N
Cosmos 2322 3.9 17:15:38 10° SW 17:21:22 76° WNW 17:27:07 10° NNE
USA 215 3.4 17:16:12 15° ENE 17:21:48 75° NNW 17:28:20 10° WSW
SPOT 1/Viking Rocket 4.2 17:17:31 10° ESE 17:22:03 32° ENE 17:26:35 10° N
Cosmos 468 Rocket 4.1 17:17:30 10° S 17:22:32 53° ESE 17:27:14 12° NE
Cosmos 2279 Rocket 4.1 17:19:17 10° NNW 17:25:32 82° W 17:31:43 10° S
Cosmos 2228 Rocket 3.1 17:21:51 10° S 17:26:19 61° E 17:30:50 10° NNE
Cosmos 1656 Rocket 4.0 17:23:08 10° NNW 17:28:19 41° NE 17:33:23 11° ESE
Cosmos 1898 Rocket 3.5 17:23:11 10° NNW 17:28:30 81° ENE 17:33:49 10° SSE
Cosmos 1980 Rocket 4.4 17:26:36 10° NW 17:29:09 13° N 17:31:43 10° NNE
Resurs 1-3 4.3 17:26:01 10° SE 17:29:46 30° ENE 17:33:34 10° N
Cosmos 841 Rocket 4.2 17:27:25 10° SSE 17:32:06 34° ESE 17:35:00 20° NE
Aureole 1 Rocket 4.4 17:24:42 10° NNW 17:32:30 88° WSW 17:39:31 10° SSE
PSLV R/B 4.5 17:30:19 10° S 17:34:14 48° W 17:38:13 10° NNW
Dummy Sat-01 4.5 17:31:13 10° S 17:34:52 74° E 17:38:33 10° N
Cosmos 1703 4.4 17:34:36 10° SE 17:36:27 21° ESE 17:36:27 21° ESE
Okean 1-7 3.2 17:35:55 10° SSE 17:40:00 46° E 17:43:22 15° NNE
SL-16 R/B 3.3 17:36:09 10° SSE 17:40:25 22° ESE 17:40:55 22° E
Cosmos 1980 3.7 17:34:57 10° SSW 17:40:31 65° ESE 17:44:57 17° NE
Cosmos 1953 2.8 17:38:38 10° NNW 17:42:18 56° W 17:45:56 10° S
NOSS 8 (E) 4.3 17:39:36 10° SW 17:43:31 80° SE 17:44:41 37° NE
SKYMED 2 3.5 17:44:06 10° NNE 17:48:28 68° ESE 17:52:47 10° S
ADEOS 4.2 17:48:47 27° E 17:50:19 32° ENE 17:54:53 10° N
NOSS 0 Rocket 3.9 17:44:19 10° SSW 17:50:29 88° WNW 17:55:40 15° NNE
Cosmos 1818 3.5 17:45:59 10° NW 17:51:30 79° NE 17:56:19 13° SE
ATLAS 2AS CENTAUR R/B 2.6 17:46:14 10° NW 17:53:07 77° NE 17:59:05 14° SE
Cosmos 2369 Rocket 2.5 17:49:05 10° NNW 17:54:27 44° NE 17:56:54 28° ESE
Cosmos 1092 Rocket 4.4 17:49:34 10° SSE 17:55:10 37° E 18:00:50 10° NNE
NOSS 8 (H) 4.2 17:51:29 10° SW 17:55:14 88° SE 17:55:55 53° NE
Resurs 01 Rocket 3.3 17:57:26 18° NNE 17:57:26 18° NNE 17:58:57 10° N
ACS3 Solar Sail 1.8 17:50:44 10° SSE 17:57:09 85° ENE 18:03:34 10° NNW
COSMOS 2428 3.4 17:52:18 10° SW 17:57:51 54° NW 18:02:53 13° NNE
Cosmos 372 Rocket 4.4 17:53:28 10° NNW 17:58:30 63° WSW 18:03:30 10° S
Cosmos 2333 Rocket 4.1 17:55:34 10° W 17:59:54 22° NNW 18:04:16 10° NNE
BREEZE-M DEB (TANK) 3.4 17:58:25 10° WSW 18:06:18 61° S 18:07:22 41° ESE
Cosmos 1908 Rocket 3.4 18:02:12 10° N 18:06:34 80° ENE 18:10:53 10° SSE
Cosmos 2322 Rocket 4.3 18:05:24 10° WNW 18:09:16 19° NNW 18:13:10 10° NNE
Cosmos 2360 Rocket 4.2 18:08:01 10° WNW 18:12:08 20° NNW 18:16:15 10° NNE
Meteor 2-12 Rocket 4.4 18:06:28 10° S 18:12:24 59° E 18:18:25 10° NNE
EO 1 Delta rocket 3.8 18:07:34 10° N 18:12:25 87° WNW 18:17:03 10° SSW
Meteor 1-31 Rocket 3.2 18:09:54 10° S 18:13:25 57° WSW 18:16:58 10° NNW
CZ-4B DEB 4.5 18:12:00 36° ESE 18:13:29 44° ENE 18:18:40 10° N
CZ-4B R/B 4.3 18:18:57 31° NNE 18:18:57 31° NNE 18:22:04 10° N
Cosmos 2297 3.6 18:11:52 10° NNW 18:17:37 66° NE 18:20:17 32° SE
Okean 2 4.3 18:14:19 10° SSW 18:18:07 46° WNW 18:21:58 10° N
Cosmos 2263 4.4 18:12:56 10° NNW 18:18:29 49° NE 18:19:34 44° E
Cosmos 1937 Rocket 4.0 18:13:26 10° NNW 18:18:30 58° WSW 18:23:32 10° S
SL-16 R/B 4.4 18:16:49 10° NW 18:19:55 15° NNW 18:23:02 10° NNE
CZ-2C R/B 2.5 18:22:18 74° W 18:22:18 74° W 18:25:38 10° NNW
Cosmos 2026 Rocket 4.0 18:17:32 10° S 18:23:48 62° E 18:30:04 10° NNE
Cosmos 1943 Rocket 4.2 18:22:19 10° NW 18:27:07 29° WSW 18:31:53 10° SSW
BREEZE-M DEB (TANK) 3.5 18:15:30 10° WSW 18:27:44 55° S 18:28:56 44° SE
Cosmos 1428 Rocket 4.4 18:24:26 10° S 18:30:39 87° E 18:36:50 10° N
BlueWalker 3 2.5 18:30:31 10° W 18:33:53 49° SW 18:33:53 49° SW
Cosmos 2237 Rocket 2.6 18:29:05 10° SW 18:34:44 63° NW 18:37:58 26° NNE
COSMO-SKYMED 1 3.6 18:32:35 11° N 18:36:31 45° WNW 18:40:39 10° SW
ISS -2.1 18:36:59 10° WSW 18:39:01 32° SW 18:39:01 32° SW
Cosmos 1782 Rocket 3.7 18:38:01 10° NNW 18:41:42 63° NNW 18:41:42 63° NNW
Cosmos 2344 3.8 18:37:51 10° WSW 18:45:06 61° NNW 18:48:48 31° NE
Cosmos 2219 Rocket 4.3 18:43:10 10° WNW 18:47:09 19° NNW 18:50:23 13° N
YAOGAN 1 4.2 18:46:07 10° SSW 18:50:01 34° W 18:53:57 10° NNW
CZ-4C R/B 1.9 18:48:04 10° SW 18:52:41 81° NW 18:53:04 75° N
Cosmos 1125 Rocket 4.5 18:49:55 10° NNW 18:53:08 34° N 18:53:08 34° N
ATLAS 5 CENTAUR R/B 3.5 18:54:05 10° SW 18:54:38 14° SW 18:54:38 14° SW
CZ-4B R/B 4.1 19:00:45 34° N 19:00:45 34° N 19:03:50 10° N
Meteor 1-24 Rocket 3.8 18:52:53 10° S 18:58:09 66° SE 18:58:09 66° SE
SPOT 1/Viking Rocket 4.4 18:56:17 10° S 19:01:16 48° W 19:06:16 10° NNW
Cosmos 1703 Rocket 4.3 18:57:28 10° SSW 19:01:49 53° WNW 19:02:12 51° NW
USA 215 3.4 19:03:32 55° NE 19:04:34 61° N 19:10:59 10° WNW
Meteor 2-5 Rocket 4.3 19:03:38 10° S 19:07:38 47° S 19:07:38 47° S
Cosmos 841 Rocket 4.4 19:08:44 10° SW 19:13:47 46° WNW 19:15:03 39° NNW
Cosmos 1980 Rocket 4.4 19:12:50 10° NNW 19:14:42 13° N 19:14:42 13° N
Cosmos 1553 Rocket 4.0 19:17:08 10° NNW 19:23:17 74° W 19:23:51 69° SW
SL-16 R/B 2.6 19:18:14 10° SW 19:22:50 59° SW 19:22:50 59° SW
ADEOS 4.3 19:29:31 50° WSW 19:29:36 50° W 19:34:42 10° NNW
Resurs 01 Rocket 4.1 19:34:51 16° NNW 19:34:51 16° NNW 19:35:50 10° NNW
Cosmos 2369 Rocket 3.1 19:33:13 10° NW 19:38:29 43° WSW 19:38:45 42° WSW
ACS3 Solar Sail 4.1 19:36:38 10° SW 19:41:28 22° W 19:46:19 10° NW
ATLAS 2AS CENTAUR R/B 4.1 19:37:38 10° WNW 19:43:29 32° WSW 19:46:35 22° SSW
Cosmos 2237 Rocket 4.3 20:15:47 10° WNW 20:19:48 20° NNW 20:19:48 20° NNW
